Location: Minneapolis
(45.0000°N, 93.0000°W)
Time: 04:13:37
(UTC-05:00)

Vanguard 1 - Visible Passes

Search period start: 20 June 2018 00:00
Search period end: 30 June 2018 00:00
Orbit: 650 x 3833 km, 34.3° (Epoch: 19 June)

Date Brightness Start Highest point End Pass type
(mag) Time Alt. Az. Time Alt. Az. Time Alt. Az.
21 Jun 12.9 04:45:09 10° SE 04:47:44 11° SE 04:50:38 10° ESE visible
26 Jun 12.4 04:07:04 10° SSE 04:10:08 12° SE 04:13:50 10° ESE visible
27 Jun 12.1 04:25:31 10° S 04:30:16 18° SE 04:36:49 10° E visible
28 Jun 12.0 04:44:58 10° SSW 04:50:31 24° SE 04:58:53 10° E visible
